KC7NGC-B Weather Reports


time (UTC)temp
F
wind
direction
speed
knots
gust
knots
rain 1hr
in
rain 24hr
in
rain mn
in
humidity
%
barometer
mb
20260905025628 67 328 1.7 1.7 0.00 0.00 0.00 1 1015.6
20260905024644 66 324 1.7 2.6 0.00 0.00 0.00 1 1015.8
20260905023620 66 291 0.9 1.7 0.00 0.00 0.00 1 1015.4
20260905022636 67 292 0.9 1.7 0.00 0.00 0.00 1 1015.6
20260905021632 68 350 1.7 1.7 0.00 0.00 0.00 1 1015.7
20260905020628 69 0 0.9 1.7 0.00 0.00 0.00 1 1015.6
20260905015624 69 34 1.7 2.6 0.00 0.00 0.00 1 1015.6
20260905014621 70 39 1.7 3.5 0.00 0.00 0.00 1 1015.5
20260905013617 71 66 2.6 3.5 0.00 0.00 0.00 1 1015.4
20260905012633 71 57 0.9 1.7 0.00 0.00 0.00 1 1015.3
20260905011629 71 23 1.7 2.6 0.00 0.00 0.00 1 1015.3
20260905010625 71 51 3.5 4.3 0.00 0.00 0.00 1 1015.2
20260905005621 71 48 3.5 4.3 0.00 0.00 0.00 1 1015.2
20260905004617 71 50 4.3 5.2 0.00 0.00 0.00 1 1015.2
20260905003634 72 26 3.5 4.3 0.00 0.00 0.00 1 1015.2
20260905002630 71 49 0.0 1.7 0.00 0.00 0.00 1 1015.1
20260905001626 71 42 2.6 4.3 0.00 0.00 0.00 1 1015.0
20260905000622 71 64 1.7 3.5 0.00 0.00 0.00 1 1015.1
20260904235618 72 86 0.9 2.6 0.00 0.00 0.00 1 1015.1
20260904234634 73 125 1.7 5.2 0.00 0.00 0.00 1 1015.1
20260904233631 72 90 3.5 4.3 0.00 0.00 0.00 1 1015.0
20260904232631 73 88 1.7 5.2 0.00 0.00 0.00 1 1015.1
20260904231643 73 87 4.3 5.2 0.00 0.00 0.00 1 1015.2
20260904230620 73 50 3.5 7.8 0.00 0.00 0.00 1 1015.2
20260904225635 72 54 6.1 7.8 0.00 0.00 0.00 1 1015.2
20260904224631 72 34 2.6 3.5 0.00 0.00 0.00 1 1015.2
20260904223628 72 100 1.7 4.3 0.00 0.00 0.00 1 1015.2
20260904222623 71 40 4.3 7.0 0.00 0.00 0.00 1 1015.3
20260904221620 71 78 2.6 4.3 0.00 0.00 0.00 1 1015.3
20260904220656 71 58 3.5 4.3 0.00 0.00 0.00 1 1015.3
20260904215633 71 63 3.5 7.8 0.00 0.00 0.00 1 1015.3
20260904214628 71 16 4.3 6.1 0.00 0.00 0.00 1 1015.5
20260904213624 71 34 4.3 6.1 0.00 0.00 0.00 1 1015.4
20260904212641 71 50 3.5 5.2 0.00 0.00 0.00 1 1015.4
20260904211620 70 82 2.6 4.3 0.00 0.00 0.00 1 1015.4
20260904210632 70 53 6.1 9.6 0.00 0.00 0.00 1 1015.2
20260904205636 70 49 4.3 7.0 0.00 0.00 0.00 1 1015.3
20260904204625 69 326 3.5 5.2 0.00 0.00 0.00 1 1015.4
20260904203620 70 20 5.2 7.8 0.00 0.00 0.00 1 1015.4
20260904202616 69 44 2.6 4.3 0.00 0.00 0.00 1 1015.3
20260904201633 69 8 5.2 6.1 0.00 0.00 0.00 1 1015.4
20260904200629 69 59 4.3 5.2 0.00 0.00 0.00 1 1015.5
20260904195645 68 95 3.5 4.3 0.00 0.00 0.00 1 1015.5
20260904194622 68 179 2.6 2.6 0.00 0.00 0.00 1 1015.6
20260904193638 67 360 1.7 4.3 0.00 0.00 0.00 1 1015.6
20260904192634 68 67 3.5 5.2 0.00 0.00 0.00 1 1015.7
20260904191630 67 38 3.5 4.3 0.00 0.00 0.00 1 1015.8
20260904190726 66 50 3.5 5.2 0.00 0.00 0.00 1 1015.8
20260904185622 65 24 2.6 4.3 0.00 0.00 0.00 1 1016.1
20260904184619 64 156 1.7 2.6 0.00 0.00 0.00 1 1016.1
20260904183635 64 185 3.5 4.3 0.00 0.00 0.00 1 1016.3
20260904182631 65 158 3.5 6.1 0.00 0.00 0.00 1 1016.1
20260904181647 65 190 3.5 3.5 0.00 0.00 0.00 1 1016.0
20260904180624 63 37 0.9 2.6 0.00 0.00 0.00 1 1015.8
20260904175620 62 314 1.7 2.6 0.00 0.00 0.00 1 1015.9
20260904174621 63 58 1.7 3.5 0.00 0.00 0.00 1 1015.8
20260904173633 62 68 1.7 2.6 0.00 0.00 0.00 1 1015.8
20260904172628 63 53 4.3 5.2 0.00 0.00 0.00 1 1015.6
20260904171625 62 331 0.9 2.6 0.00 0.00 0.00 1 1015.6
20260904170621 62 12 0.9 2.6 0.00 0.00 0.00 1 1015.7
20260904165618 60 348 2.6 3.5 0.00 0.00 0.00 1 1015.7
20260904164634 59 1 1.7 2.6 0.00 0.00 0.00 1 1015.6
20260904163629 60 336 2.6 3.5 0.00 0.00 0.00 1 1015.6
20260904162645 58 43 1.7 1.7 0.00 0.00 0.00 1 1015.6
20260904161622 58 9 1.7 3.5 0.00 0.00 0.00 1 1015.6
20260904160618 58 337 1.7 3.5 0.00 0.00 0.00 1 1015.4
20260904155636 57 1 2.6 3.5 0.00 0.00 0.00 1 1015.4
20260904154630 57 12 3.5 3.5 0.00 0.00 0.00 1 1015.3
20260904153626 56 7 1.7 2.6 0.00 0.00 0.00 1 1015.3
20260904152622 56 5 2.6 3.5 0.00 0.00 0.00 1 1015.3
20260904151619 55 41 1.7 3.5 0.00 0.00 0.00 1 1015.1
20260904150635 55 322 1.7 3.5 0.00 0.00 0.00 1 1014.9
20260904145631 54 346 1.7 3.5 0.00 0.00 0.00 1 1014.7
20260904144627 53 40 0.9 1.7 0.00 0.00 0.00 1 1014.8
20260904143623 53 359 2.6 3.5 0.00 0.00 0.00 1 1014.6
20260904142640 54 341 1.7 2.6 0.00 0.00 0.00 1 1014.5
20260904141716 53 212 0.9 1.7 0.00 0.00 0.00 1 1014.4
20260904140632 53 279 1.7 1.7 0.00 0.00 0.00 1 1014.2
20260904135628 52 311 1.7 1.7 0.00 0.00 0.00 1 1013.9
20260904134624 51 310 0.9 1.7 0.00 0.00 0.00 1 1013.8
20260904133620 51 283 0.9 1.7 0.00 0.00 0.00 1 1013.7
20260904132617 51 253 0.9 1.7 0.00 0.00 0.00 1 1013.5
20260904131634 51 316 2.6 3.5 0.00 0.00 0.00 1 1013.5
20260904130629 51 292 2.6 3.5 0.00 0.00 0.00 1 1013.5
20260904125624 52 270 1.7 2.6 0.00 0.00 0.00 1 1013.4
20260904124701 52 198 1.7 2.6 0.00 0.00 0.00 1 1013.4
20260904123616 51 251 1.7 2.6 0.00 0.00 0.00 1 1013.4
20260904122633 53 190 3.5 4.3 0.00 0.00 0.00 1 1013.3
20260904121709 52 297 0.9 2.6 0.00 0.00 0.00 1 1013.2
20260904120625 53 39 0.9 1.7 0.00 0.00 0.00 1 1013.1
20260904115622 52 181 0.9 1.7 0.00 0.00 0.00 1 1013.0
20260904114618 51 204 3.5 5.2 0.00 0.00 0.00 1 1013.0
20260904113635 51 281 1.7 2.6 0.00 0.00 0.00 1 1012.7
20260904112631 51 351 1.7 3.5 0.00 0.00 0.00 1 1012.8
20260904111627 50 272 0.9 0.9 0.00 0.00 0.00 1 1012.8
20260904110623 50 327 0.0 1.7 0.00 0.00 0.00 1 1012.7
20260904105632 52 316 2.6 3.5 0.00 0.00 0.00 1 1012.6
20260904104628 50 0.0 0.9 0.00 0.00 0.00 1 1012.5
20260904103624 51 293 2.6 2.6 0.00 0.00 0.00 1 1012.2
20260904102620 50 237 1.7 2.6 0.00 0.00 0.00 1 1012.1
20260904101616 51 239 1.7 3.5 0.00 0.00 0.00 1 1012.0
20260904100633 51 274 0.9 1.7 0.00 0.00 0.00 1 1011.8
20260904095629 52 0.0 0.9 0.00 0.00 0.00 1 1011.8
20260904094625 52 291 1.7 1.7 0.00 0.00 0.00 1 1011.8
20260904093621 53 0.0 0.0 0.00 0.00 0.00 1 1011.6
20260904092617 53 214 0.9 1.7 0.00 0.00 0.00 1 1011.5
20260904091633 53 0.0 0.0 0.00 0.00 0.00 1 1011.6
20260904090629 53 244 0.9 0.9 0.00 0.00 0.00 1 1011.4
20260904085625 52 332 1.7 2.6 0.00 0.00 0.00 1 1011.6
20260904084641 54 333 0.9 1.7 0.00 0.00 0.00 1 1011.6
20260904083617 54 300 1.7 1.7 0.00 0.00 0.00 1 1011.6
20260904082633 56 0.0 0.9 0.00 0.00 0.00 1 1011.4
20260904081629 56 92 0.0 0.9 0.00 0.00 0.00 1 1011.5
20260904080625 56 220 0.0 0.9 0.00 0.00 0.00 1 1011.5
20260904075621 57 174 2.6 4.3 0.00 0.00 0.00 1 1011.5
20260904074617 57 0.0 2.6 0.00 0.00 0.00 1 1011.6
20260904073633 57 0.0 0.9 0.00 0.00 0.00 1 1011.6
20260904072629 57 229 1.7 1.7 0.00 0.00 0.00 1 1011.7
20260904071626 58 3 1.7 1.7 0.00 0.00 0.00 1 1011.7
20260904070641 60 189 1.7 2.6 0.00 0.00 0.00 1 1011.6
20260904065617 60 175 2.6 4.3 0.00 0.00 0.00 1 1011.5
20260904064634 60 187 3.5 5.2 0.00 0.00 0.00 1 1011.5
20260904063630 60 167 6.1 11.3 0.00 0.00 0.00 1 1011.2
20260904062626 60 175 6.1 7.8 0.00 0.00 0.00 1 1011.3
20260904061622 60 179 4.3 5.2 0.00 0.00 0.00 1 1011.4
20260904060619 59 317 1.7 2.6 0.00 0.01 0.00 1 1011.4
20260904055635 59 295 1.7 1.7 0.00 0.01 0.00 1 1011.2
20260904054631 59 340 1.7 1.7 0.00 0.01 0.00 1 1011.2
20260904053627 60 189 1.7 2.6 0.00 0.01 0.00 1 1011.1
20260904052623 60 245 0.9 1.7 0.00 0.01 0.00 1 1011.1
20260904051619 59 193 1.7 2.6 0.00 0.01 0.00 1 1011.1
20260904050636 60 178 0.9 1.7 0.00 0.01 0.00 1 1011.0
20260904045652 60 182 0.9 3.5 0.00 0.01 0.00 1 1011.1
20260904044628 61 153 2.6 3.5 0.00 0.01 0.00 1 1010.9
20260904043624 62 183 2.6 3.5 0.00 0.01 0.00 1 1011.0
20260904042640 63 167 1.7 2.6 0.00 0.01 0.00 1 1011.0
20260904041617 64 172 2.6 5.2 0.00 0.02 0.00 1 1010.8
20260904040633 63 144 0.9 2.6 0.00 0.02 0.00 1 1010.7
20260904035629 64 162 2.6 7.0 0.00 0.02 0.00 1 1010.5
20260904034625 63 161 4.3 7.0 0.00 0.02 0.00 1 1010.4
20260904033641 64 181 3.5 4.3 0.00 0.02 0.00 1 1010.6
20260904032617 64 188 4.3 5.2 0.00 0.02 0.00 1 1010.4
20260904031633 63 166 1.7 2.6 0.00 0.02 0.00 1 1010.4
20260904030629 64 177 1.7 2.6 0.00 0.02 0.00 1 1010.2